World > North America > United States > Texas

Kittrell, Texas Regional Weather

Lat: 30.90N, Lon: 95.38W
Wx Zone: TXZ164Web Search

Helpful Tip: You can add this page to Bookmarks by pressing the Ctrl key & d key at the same time. Mac users press command & d.

Feedback


°F Click to change Kittrell hourly weather to Imperial units.Click to change Kittrell hourly weather to Metric units. °C
Kittrell Weather Map
UTC Time: 4/15/2021, 10:47
Your Time:

Kittrell, TX Regional Weather

Expires:202104151100;;584903
ASUS44 KFWD 151015
RWRTX 
NORTH TEXAS HOURLY WEATHER ROUNDUP
NATIONAL WEATHER SERVICE FORT WORTH TX
500 AM CDT THU APR 15 2021

NOTE: "FAIR" INDICATES FEW OR NO CLOUDS BELOW 12,000 FEET WITH NO
SIGNIFICANT WEATHER AND/OR OBSTRUCTIONS TO VISIBILITY.


TXZ095>097-106>112-122>126-135>138-148>153-164>167-151100-
EAST TEXAS
  
CITY           SKY/WX    TMP DP  RH WIND       PRES   REMARKS
PARIS          MOCLDY    52  52 100 NE10      30.07S                  
SULPHUR SPRNGS CLOUDY    54  52  94 E10       30.06S                  
GILMER         LGT RAIN  54  53  95 NE6       30.03F                  
MINEOLA        CLOUDY    55  55 100 E5        30.03F                  
TYLER          CLOUDY    57  53  86 NE9       30.02F                  
LONGVIEW       HVY RAIN  55  53  93 E8        30.02F                  
MARSHALL       CLOUDY    53  51  93 NE5       30.07R                  
ATHENS         CLOUDY    57  54  88 E7        29.99F                  
PALESTINE      CLOUDY    57  55  94 NE10      30.02S                  
JACKSONVILLE   CLOUDY    55  55 100 NE9       30.03F FOG              
HENDERSON      CLOUDY    55  54  94 NE6       30.04F                  
CENTER         CLOUDY    55  54  94 NE6       30.04R FOG              
NACOGDOCHES    CLOUDY    57  55  93 N8        30.02S                  
LUFKIN         LGT RAIN  59  57  93 N10       29.99R FOG              
$$

SUPPLEMENTAL OBSERVATIONS (NWS FORT WORTH AREA)
  
CITY           SKY/WX    TMP DP  RH WIND       PRES   REMARKS
POSSUM KINGDOM   N/A     55  52  88 NE9         N/A                   
GRANBURY         N/A     61  55  82 NE12        N/A                   
MCGREGOR         N/A     61  57  88 NE10        N/A                   
TEMPLE           N/A     63  59  88 NE16        N/A                   
PALESTINE        N/A     57  55  94 NE6G17      N/A                   
$$

SUPPLEMENTAL OBSERVATIONS (NWS NORMAN AREA)
  
CITY           SKY/WX    TMP DP  RH WIND       PRES   REMARKS
GOODLETT         N/A     47  46  96 NE9       30.11R                  
ODELL            N/A     49  46  90 NE15      30.12S                  
CROWELL          N/A     49  48  99 NE12      30.10F                  
KNOX CITY        N/A     49  49  99 N5        30.08S                  
SEYMOUR          N/A     51  49  95 NE9       30.08R                  
MILLERS CREEK    N/A     52  50  93 NE9         N/A                   
$$

SUPPLEMENTAL OBSERVATIONS (NWS SAN ANGELO AREA)
  
CITY           SKY/WX    TMP DP  RH WIND       PRES   REMARKS
WEINERT          N/A     50  49  97 NE6       30.08S                  
HASKELL          N/A     49  48  97 NE8       30.06S                  
THROCKMORTON     N/A     51  51 100 NE5       30.06F                  
STAMFORD         N/A     50  50 100 NE12      30.06F                  
CLYDE            N/A     51  51 100 NE8       30.04S                  
HAMBY            N/A     52  50  93 NE6         N/A                   
IVIE RESERVOIR   N/A     55  52  88 NE9         N/A                   
COLORADO BEND    N/A     61  59  94 NE6         N/A                   
$$

SUPPLEMENTAL OBSERVATIONS (NWS SHREVEPORT AREA)
  
CITY           SKY/WX    TMP DP  RH WIND       PRES   REMARKS
TEXARKANA        N/A     54  50  87 E1G9        N/A                   
LINDEN           N/A     54  52  94 NE2G10      N/A                   
LUFKIN           N/A     57  54  88 MISG        N/A                   
N SABINE NF      N/A     55  54  94 MISG        N/A                   
$$

SUPPLEMENTAL OBSERVATIONS ARE A COLLECTION OF AUTOMATED INSTRUMENTS
THAT ARE MAINTAINED BY A VARIETY OF FEDERAL AND STATE AGENCIES. 
CERTAIN ELEMENTS...SUCH AS HUMIDITY VALUES AND SUSTAINED WIND 
SPEEDS...MAY BE APPROXIMATED.

  

SKY/WX - Weather  TMP - Temperature  DP - Dew Point  RH - Relative Humidity
WIND - Wind Direction/Speed PRES - Barometric Pressure VSB - Visibility
WCI - Wind Chill Index E13G22 Wind - East Wind 13 mph/Gusts of 22 mph